Change the Weather History Date:

Friday, August 2, 2013

  Actual Average Record
Temperature  
Mean Temperature 75 °F 78 °F  
Max Temperature 84 °F 91 °F 104 °F (2011)
Min Temperature 65 °F 66 °F 55 °F (1971)
Degree Days  
Heating Degree Days 0 0  
Month to date heating degree days 0 0  
Since 1 June heating degree days 9 5  
Since 1 July heating degree days 0 0  
Cooling Degree Days 10 13  
Month to date cooling degree days 20 26  
Year to date cooling degree days 554 819  
Since 1 June cooling degree days 442 697  
Growing Degree Days 24 (Base 50)    
Moisture  
Dew Point 67 °F    
Average Humidity 76    
Maximum Humidity 93    
Minimum Humidity 58    
Precipitation  
Precipitation 0.00 in 0.11 in 1.59 in (1996)
Month to date precipitation 0.00 0.24  
Year to date precipitation 31.61 27.08  
Sea Level Pressure  
Sea Level Pressure 29.98 in    
Wind  
Wind Speed 5 mph (SSE)    
Max Wind Speed 15 mph    
Max Gust Speed 21 mph    
Visibility 10 miles    
Events      
T = Trace of Precipitation, MM = Missing Value Source: NWS Daily Summary

Daily Weather History Graph

Daily Weather History Graph

Search for Another Location

Airport or City:

Trip Planner

Search our weather history database for the weather conditions in past years. The results will help you decide how hot, cold, wet, or windy it might be!

Date:

Astronomy

Aug. 02, 2013 Rise Set
Actual Time 6:14 AM CDT 8:13 PM CDT
Civil Twilight 5:45 AM CDT 8:41 PM CDT
Nautical Twilight 5:10 AM CDT 9:16 PM CDT
Astronomical Twilight 4:33 AM CDT 9:53 PM CDT
Moon 2:36 AM CDT (8/2) 5:09 PM CDT (8/2)
Length of Visible Light 14h 55m
Length of Day
13h 58m
Waning Crescent, 15% of the Moon is Illuminated
Aug 2
Waning Crescent
Aug 6
New
Aug 14
First Quarter
Aug 20
Full
Aug 28
Last Quarter

Hourly Weather History & Observations

Time (CDT) Temp. Heat Index Dew Point Humidity Pressure Visibility Wind Dir Wind Speed Gust Speed Precip Events Conditions
12:53 AM 69.1 °F - 66.0 °F 90% 30.02 in 10.0 mi Calm Calm - N/A   Clear
1:53 AM 69.1 °F - 64.9 °F 87% 30.00 in 10.0 mi South 3.5 mph - N/A   Clear
2:53 AM 70.0 °F - 66.0 °F 87% 29.98 in 10.0 mi Calm Calm - N/A   Clear
3:53 AM 69.1 °F - 64.0 °F 84% 29.99 in 10.0 mi Calm Calm - N/A   Clear
4:53 AM 66.9 °F - 64.0 °F 90% 29.99 in 10.0 mi Calm Calm - N/A   Clear
5:53 AM 66.9 °F - 64.0 °F 90% 29.99 in 10.0 mi Calm Calm - 0.01 in   Clear
6:53 AM 68.0 °F - 64.9 °F 90% 30.00 in 10.0 mi Calm Calm - N/A   Clear
7:53 AM 71.1 °F - 66.9 °F 87% 30.01 in 10.0 mi SSW 4.6 mph - N/A   Clear
8:53 AM 73.0 °F - 66.0 °F 79% 30.01 in 10.0 mi South 6.9 mph - N/A   Clear
9:53 AM 75.0 °F - 64.0 °F 69% 30.01 in 10.0 mi South 6.9 mph - N/A   Clear
10:53 AM 75.0 °F - 64.9 °F 71% 30.02 in 10.0 mi SSW 9.2 mph - N/A   Clear
11:53 AM 78.1 °F - 66.0 °F 66% 30.00 in 10.0 mi South 6.9 mph - N/A   Clear
12:53 PM 81.0 °F 82.5 °F 64.0 °F 56% 29.98 in 10.0 mi South 10.4 mph 18.4 mph N/A   Clear
1:53 PM 81.0 °F 82.5 °F 64.0 °F 56% 29.97 in 10.0 mi SSE 9.2 mph - N/A   Scattered Clouds
2:53 PM 81.0 °F 82.7 °F 64.9 °F 58% 29.96 in 10.0 mi SSE 9.2 mph - N/A   Clear
3:53 PM 82.0 °F 84.1 °F 66.0 °F 58% 29.94 in 10.0 mi SSE 10.4 mph - N/A   Clear
4:53 PM 82.9 °F 85.4 °F 66.9 °F 58% 29.92 in 10.0 mi SSE 11.5 mph 17.3 mph N/A   Partly Cloudy
5:53 PM 82.0 °F 84.9 °F 68.0 °F 62% 29.94 in 10.0 mi Calm Calm - N/A   Mostly Cloudy
6:53 PM 80.1 °F 83.2 °F 70.0 °F 71% 29.92 in 10.0 mi SE 6.9 mph - N/A   Mostly Cloudy
7:53 PM 79.0 °F - 70.0 °F 74% 29.92 in 10.0 mi SSE 8.1 mph - N/A   Partly Cloudy
8:53 PM 75.9 °F - 71.1 °F 85% 29.94 in 10.0 mi ESE 3.5 mph - 0.00 in   Scattered Clouds
9:53 PM 75.0 °F - 71.1 °F 87% 29.95 in 10.0 mi SE 3.5 mph - N/A   Mostly Cloudy
10:44 PM 75.2 °F - 71.6 °F 89% 29.99 in 10.0 mi SE 3.5 mph - N/A   Overcast
10:53 PM 75.0 °F - 71.1 °F 87% 29.95 in 10.0 mi SSE 4.6 mph - N/A   Overcast
11:20 PM 75.2 °F - 69.8 °F 83% 29.99 in 10.0 mi SE 3.5 mph - N/A   Scattered Clouds
11:34 PM 75.2 °F - 69.8 °F 83% 29.99 in 10.0 mi Calm Calm - N/A   Mostly Cloudy
11:53 PM 75.0 °F - 70.0 °F 84% 29.95 in 10.0 mi Calm Calm - N/A   Mostly Cloudy